Regional Weather Roundup
Issued by NWS

Home | Current Version | Previous Version | Graphics & Text | Print | Product List | Glossary Off
Versions: 1 2 3 4 5 6 7 8 9 10 11 12 13 14 15 16 17 18 19 20 21 22 23 24 25 26 27 28 29 30 31 32 33 34 35 36 37 38 39 40 41 42 43 44 45 46 47 48 49 50

000
ASUS43 KMKX 210421
RWRWI

WISCONSIN REGIONAL WEATHER ROUNDUP
NATIONAL WEATHER SERVICE MILWAUKEE/SULLIVAN WI
1000 PM CST THU NOV 20 2014

NOTE: "FAIR" INDICATES FEW OR NO CLOUDS BELOW 12,000 FEET WITH NO
SIGNIFICANT WEATHER AND/OR OBSTRUCTIONS TO VISIBILITY.

WIZ001-002-006>008-014>016-023>028-210500-
NORTHWEST WISCONSIN

CITY           SKY/WX    TMP DP  RH WIND       PRES   REMARKS
SUPERIOR ARPT  PTCLDY     4  -3  72 W5        30.21R WCI  -5
ASHLAND        CLEAR      2  -3  80 S3        30.19R
HAYWARD        PTCLDY    -8 -12  83 CALM      30.17R
SIREN          PTCLDY    -7 -11  81 CALM      30.21R
CUMBERLAND     CLEAR     -8  -9  92 S5        30.19R WCI -19
RICE LAKE      FOG       -4  -8  83 CALM      30.22R VSB 1/4
CHETEK         CLEAR     -2  -5  87 MISG      30.21R
LADYSMITH      PTCLDY    -4  -8  85 CALM      30.19R
EAU CLAIRE     CLEAR      5  -2  72 SW5       30.24R WCI  -4
MENOMONIE      CLEAR      2  -4  75 CALM      30.24R
NEW RICHMOND   CLEAR      2  -2  83 SW3       30.23R
OSCEOLA        PTCLDY    -3  -7  82 CALM      30.26S
$$

WIZ003>005-009-010-017-018-210500-
NORTH CENTRAL WISCONSIN

CITY           SKY/WX    TMP DP  RH WIND       PRES   REMARKS
MANITOWISH WTR PTCLDY     6  -1  72 W6        30.10R WCI  -5
ARBOR VITAE    CLEAR     11   4  73 W7        30.10R WCI   1
WOODRUFF       CLEAR     11   4  73 W7        30.10R WCI   1
RHINELANDER    CLEAR      2  -4  76 W9        30.11R WCI -13
EAGLE RIVER    MOCLDY     8   1  72 W6        30.09R WCI  -2
LAND O LAKES   LGT SNOW  11   6  83 W5        30.09R WCI   3
PHILLIPS       PTCLDY   -10 -13  84 CALM      30.14S
TOMAHAWK       CLEAR     -5  -9  84 CALM      30.14R
MEDFORD        PTCLDY    -2  -5  87 CALM      30.15R
MERRILL        CLEAR     -6  -9  86 CALM      30.16R
$$

WIZ029-030-035-036-043>047-210500-
CENTRAL WISCONSIN

CITY           SKY/WX    TMP DP  RH WIND       PRES   REMARKS
WAUSAU         CLEAR      4  -3  73 CALM      30.17R
MOSINEE        FAIR       5   0  78 W8        30.20R WCI  -8
MARSHFIELD     PTCLDY     0  -6  76 W3        30.19R
STEVENS POINT  CLEAR      5  -3  70 CALM      30.21R
WAUPACA        CLEAR      9  -1  65 W7        30.23R WCI  -3
WAUTOMA        CLEAR      6  -5  60 W3        30.25R
WISC RAPIDS    CLEAR      1  -5  75 CALM      30.23R
CAMP DOUGLAS   CLEAR      1  -1  92 W1        30.25R
$$

WIZ011>013-019>022-031-037>040-048>050-210500-
NORTHEAST WISCONSIN

CITY           SKY/WX    TMP DP  RH WIND       PRES   REMARKS
ANTIGO         CLEAR      2  -3  77 W8        30.13R WCI -11
SHAWANO        CLEAR     10   1  68 W3        30.21R
OCONTO         CLOUDY    10   1  67 W8        30.19R WCI  -1
STURGEON BAY   CLOUDY    16   3  57 NW15      30.17R WCI   1
GREEN BAY      PTCLDY     8   0  69 W6        30.21R WCI  -2
MANITOWOC      CLEAR     11   2  67 NW8       30.21R WCI  -1
APPLETON       CLEAR      7  -2  66 W8        30.20  WCI  -6
CLINTONVILLE   CLEAR      9   1  72 W6        30.20R WCI  -1
OSHKOSH        CLEAR      9  -1  64 W6        30.23R WCI  -1
$$

WIZ032>034-041-042-053>061-210500-
SOUTHWEST WISCONSIN

CITY           SKY/WX    TMP DP  RH WIND       PRES   REMARKS
LA CROSSE      PTCLDY    12   1  61 CALM      30.29R
SPARTA         CLEAR     -2  -6  84 CALM      30.27R
VIROQUA        PTCLDY     8   1  73 W8        30.23R WCI  -5
BOSCOBEL       CLEAR     11   4  73 SW5       30.30R WCI   3
PRAIRIE DU CHI CLEAR      9   3  78 CALM      30.31R
PLATTEVILLE    CLEAR     10   3  75 W6        30.28R WCI   0
$$

WIZ056-057-062-063-064-067-068-210500-
SOUTH CENTRAL WISCONSIN

CITY           SKY/WX    TMP DP  RH WIND       PRES   REMARKS
REEDSBURG      CLEAR      6   0  74 CALM      30.25R
BARABOO/DELLS  CLEAR      7  -1  70 W5        30.24R WCI  -2
LONE ROCK      CLEAR     11   0  61 W3        30.29R
MINERAL POINT  CLEAR     10   3  72 NW5       30.24R WCI   2
MADISON        CLEAR     10  -1  61 CALM      30.25R
MIDDLETON      CLEAR      8   0  68 CALM      30.26R
WATERTOWN      CLEAR     11   1  66 CALM      30.24R
MONROE         CLEAR     12   5  73 W9        30.24R WCI   0
JANESVILLE     CLEAR     10   3  72 NW5       30.26R WCI   2
$$

WIZ051-052-058>065-066-070>072-210500-
SOUTHEAST WISCONSIN

CITY           SKY/WX    TMP DP  RH WIND       PRES   REMARKS
MILWAUKEE      PTCLDY    16  -1  47 NW13      30.24R WCI   2
WAUKESHA       CLEAR     12   0  57 NW9       30.25R WCI   0
MILWAUKEE/TIMM CLEAR     14   0  52 W8        30.26R WCI   3
RACINE         CLEAR     16  -1  47 NW8       30.26R WCI   5
BURLINGTON     CLEAR      9  -2  61 NW6       30.25R WCI   0
KENOSHA        CLEAR     12   1  61 W6        30.25R WCI   3
FOND DU LAC    CLEAR     10  -2  58 W7        30.23R WCI  -1
SHEBOYGAN      CLEAR     11   1  64 NW7       30.22R WCI   0
WEST BEND      CLEAR     12   0  57 W6        30.23R WCI   3
JUNEAU         CLEAR     10  -1  59 NW3       30.24R
$$

LSZ147-162-210500-
LAKE SUPERIOR

STATION/POSITION TIME  TEMP    WIND        PRES    WAVE
                       AIR SEA DIR/SP/G            HT/PER
                 (UTC) (F)     (DEG/KT/KT) (MB)    (FT/S)
DEVILS ISLAND    0400   15     290/ 14/ 19 1023.2R
PORT WING        0300   16     290/ 11/ 16 1022.4R
SAXON HARBOR     0300   12     210/  7/ 10 1021.7R
$$

LMZ867-665-643>646-210500-
LAKE MICHIGAN

STATION/POSITION TIME  TEMP    WIND        PRES    WAVE
                       AIR SEA DIR/SP/G            HT/PER
                 (UTC) (F)     (DEG/KT/KT) (MB)    (FT/S)
CHAMBERS ISLAND  0300   14     250/  5/ 15 1021.0R
N MID LAKE BUOY  0350   18 42  320/ 17/ 23 1021.4R   4/ 5
NORTHPORT PIER   0404   16     290/ 11/ 18 1021.3R
SISTER BAY       0258          310/ 23/ 28   N/A
ALGOMA LAKESHORE 0328          320/  7/ 11   N/A
KEWAUNEE LAKESHO 0400   11     280/  3/  5 1021.6R
SHEBOYGAN LAKESH 0400   14 34  280/  9/ 10 1025.3R
PORT WASHINGTON  0340   14     280/  3/  6 1024.7R
ATWATER BUOY     0400   20     320/ 16/ 21 1024.2R
MILWAUKEE LAKESH 0400   16     300/  8/ 11   N/A
S MID LAKE BUOY  0350   22 43  300/ 21/ 25 1024.1R   6/ 6
KENOSHA   LAKESH 0400   16     300/  7/  9 1024.4R
$$

TC  - TEMPERATURE IN CELSIUS
VSB - VISIBILITY IN STATUTE MILES
WCI - WIND CHILL INDEX
HX  - HEAT INDEX



USA.gov is the U.S. government's official web portal to all federal, state and local government web resources and services.